Weather Roundup
Issued by NWS Chicago, IL

Home | Current Version | Previous Version | Graphics & Text | Print | Product List | Glossary On
Versions: 1 2 3 4 5 6 7 8 9 10 11 12 13 14 15 16 17 18 19 20 21 22 23 24 25 26 27 28 29 30 31 32 33 34 35 36 37 38 39 40 41 42 43 44 45 46 47 48 49 50
000
NZUS59 KLOT 040121
HRRLOT

CHICAGO AREA WEATHER ROUNDUP
NATIONAL WEATHER SERVICE CHICAGO/ROMEOVILLE IL
800 PM CDT SUN MAY 03 2015

NOTE: "FAIR" INDICATES FEW OR NO CLOUDS BELOW 12,000 FEET WITH NO
SIGNIFICANT WEATHER AND/OR OBSTRUCTIONS TO VISIBILITY.

* THESE STATIONS ARE NOT UNDER NWS QUALITY CONTROL. THEY ALSO MAY NOT
  REPORT WEATHER SUCH AS PRECIPITATION OR FOG.

ILZ005-006-012>014-019>023-040200-
NORTHEAST ILLINOIS

CITY           SKY/WX    TMP DP  RH WIND       PRES   REMARKS
OHARE          TSTM      62  59  90 S7        29.93F
MIDWAY         LGT RAIN  65  61  87 N10       29.95S
AURORA         CLOUDY    64  56  75 E8        29.91F
LANSING*       LGT RAIN  71  44  37 S7        29.94S
JOLIET*        CLOUDY    67  59  76 N5        29.93S
WAUKEGAN       CLOUDY    61  59  93 SE6       29.92F
DUPAGE AIRPORT CLOUDY    63  57  81 SE10      29.89F
WHEELING       CLOUDY    62  60  93 SE3       29.94F
KANKAKEE*      LGT RAIN  72  48  42 S10       29.94S
MORRIS*        CLOUDY    70  54  56 E3        29.91S
LEWIS AIRPORT* CLOUDY    63  58  84 NW3       29.93S
NORTHERLY IS     N/A     64  57  78 W1          N/A
$$

WIZ051-052-058>065-066-070>072-040200-
SOUTHEAST WISCONSIN

CITY           SKY/WX    TMP DP  RH WIND       PRES   REMARKS
MILWAUKEE      MOCLDY    67  53  61 S14       29.88F
KENOSHA*       MOCLDY    63  58  83 S12       29.91F
RACINE*        CLOUDY    66  55  67 S12G21    29.91F
BURLINGTON     PTCLDY    61  55  82 S7        29.89S
WAUKESHA       CLEAR     64  54  68 SW12G29   29.89F
WEST BEND      CLEAR     64  48  55 S8        29.86F
$$

INZ001>003-010>013-019-020-040200-
NORTHWEST INDIANA

CITY           SKY/WX    TMP DP  RH WIND       PRES   REMARKS
GARY*          CLOUDY    75 N/A N/A S9        29.95R
MICHIGAN CITY* NOT AVBL
RENSSELAER*    NOT AVBL
VALPARAISO     CLOUDY    73  43  33 S7        29.97R
$$

LMZ740>746-040200-
SOUTHERN LAKE MICHIGAN

STATION/POSITION TIME  SKY/WX   TEMP WIND        PRES    VSBY
                                AIR  DIR/SP/G
                 (UTC)          (F)  (DEG/KT/KT) (MB)    (MI)
HARRISON CRIB    0100            62  270/  6/  8   N/A
BURNHAM HARBOR   0100            63   CALM  / 15   N/A
CALUMET HARBOR   0000            76  210/  5/  7   N/A
BURNS HARBOR     0000            76  190/ 12/ 16 1014.2R
MICHIGAN CITY    0100            75  170/ 12/ 15   N/A
$$

ABBREVIATIONS USED IN REMARKS
   TC - TEMPERATURE IN CELSIUS
  WCI - WIND CHILL INDEX
   HX - HEAT INDEX
  VSB - VISIBILITY
$$


USA.gov is the U.S. government's official web portal to all federal, state and local government web resources and services.